STARLINK-36578, 67571

Orbit data source: Space-Track

STARLINK-36578, 67571 is a payload satellite owned by SpaceX/Seattle (US) in SSO that was launched on Sun, 25 Jan 2026 UTC via an FALCON 9 launch vehicle from the Air Force Western Test Range (AFWTR). Payload-class satellites include a variety of spacecraft equipped with specific instruments for various scientific and technological missions. These include communications satellites like Starlink; space stations such as the ISS; scientific satellites like the Hubble; Earth observation satellites from companies like Planet Labs, Umbra, and HawkEye 360; GPS; miniature CubeSats for education and research; and military/defense satellites.

Loading next visibility...
Identifier
67571, 2026-016L
Orbit
SSO
Country
Flag of USUS
Related business
Manufacturer
SpaceX/Seattle
Mission
Operational spacecraft
Bus & Motor
STARLINK V2MO, Unknown motor
Mass
575 kg wet, ~530 kg dry
Launch date (UTC)
2026-01-25 (2 weeks ago)
Launch vehicle
FALCON 9
Launch site
Air Force Western Test Range (AFWTR)
Object type
Payload
Rocket body
Debris
Shape & HBR
Unknown shape, 17.7 m
Radar Cross Section
RCS unknown

Expand to show TLE details & history
Last TLE update: 11 hours ago

TLE from 11 hours ago
0 STARLINK-36578
1 67571U 26016L   26039.91670139 -.01943841  00000-0 -12072-1 0  9992
2 67571  97.2841  98.9180 0002070  97.6862 119.2666 15.80035455  3405
Epoch: 2026-02-08T22:00Z
TLE epoch observation values (Epoch: 2026-02-08T22:00:03.000Z)
Latitude
-36.90728°
Longitude
164.40891°
Altitude
345.17 km
Speed
7.7 km/s
True Right ascension
18h 13m 45s
True Declination
-36° 43' 56"
Sunlit
Object was in daylight at epoch
Visualization orbit readout
Latitude
Unknown
Longitude
Unknown
Altitude
Unknown
Speed
Unknown
Apparent Right ascension
Unknown
Apparent Declination
Unknown
Sunlit
N/A
Visualization observer readout
Local Sidereal Time
11:30:12
Azimuth
Unknown
Elevation
Unknown
Doppler factor
Unknown
Orbital elements
Apogee altitude
328.609 km
Perigee altitude
325.833 km
Semi-major axis
6,705.358 km
Eccentricity
0.00021
Inclination
97.2841°
RAAN
98.918°
Arg. of periapsis
97.6862°
True anomaly
119.28729°
Mean anomaly
119.2666°
Eccentric anomaly
119.27695°
Mean motion
3.95285 °/min
Orbital period
91.07 mins
BSTAR
-0.012072
Loading maneuver chart data...
Computing Atmospheric mass density...
Loading historical data...
Loading historical data...
Loading historical data...
Loading historical data...
Loading historical data...
Loading historical data...
Loading historical data...

Documentation

Showing up to 5 results
|